Location: Veytaux
(46.4185°N, 6.9320°E)
Time: 07:52:54
(UTC+00:00)

COSMOS 2455 - Pass Details

Date: 27 May 2022
Orbit: 901 x 908 km, 67.1° (Epoch: 01 July)

Event Time Altitude Azimuth Distance (km) Brightness Sun altitude
Exits shadow 02:08:46 19° 217° (SW) 2,039 4.0 -13.3°
Maximum altitude 02:13:17 80° 303° (WNW) 926 2.9 -12.8°
Drops below altitude 10° 02:19:21 10° 31° (NNE) 2,601 6.7 -12.2°
Sets 02:21:53 0° 33° (NNE) 3,546 8.0 -11.9°
